This is the latest recevied weather packets stored in our database for station/object N4RCT. If no packets are shown the sender has not sent any weather packets the latest 10 day(s).
| Time | Temp. | Humidity | Pressure | Rain* | Wind** | Luminosity | Snow |
|---|---|---|---|---|---|---|---|
| 1777736794 | 16.67° C | 52% | 1013.9 hPa | 0 mm | - | 694 W/m² | - |
| 1777736166 | 16.67° C | 53% | 1013.9 hPa | 0 mm | - | 853 W/m² | - |
| 1777735863 | 16.67° C | 52% | 1013.8 hPa | 0 mm | - | 727 W/m² | - |
| 1777735561 | 16.67° C | 56% | 1014.1 hPa | 0 mm | - | 429 W/m² | - |
| 1777735258 | 16.67° C | 53% | 1013.7 hPa | 0 mm | - | 354 W/m² | - |
| 1777734955 | 16.67° C | 56% | 1013.8 hPa | 0 mm | - | 560 W/m² | - |
| 1777734652 | 16.67° C | 52% | 1013.8 hPa | 0 mm | - | 368 W/m² | - |
| 1777734349 | 16.11° C | 53% | 1013.3 hPa | 0 mm | - | 1012 W/m² | - |
| 1777734045 | 16.11° C | 53% | 1013.5 hPa | 0 mm | - | 378 W/m² | - |
| 1777733742 | 16.11° C | 52% | 1013.5 hPa | 0 mm | - | 334 W/m² | - |
| 1777733439 | 16.11° C | 53% | 1013.5 hPa | 0 mm | - | 583 W/m² | - |
| 1777733135 | 15° C | 57% | 1013.7 hPa | 0 mm | - | 871 W/m² | - |
| 1777732832 | 15.56° C | 57% | 1013.1 hPa | 0 mm | - | 613 W/m² | - |
| 1777732528 | 15° C | 58% | 1013.5 hPa | 0 mm | - | 370 W/m² | - |
| 1777732227 | 15° C | 58% | 1013 hPa | 0 mm | - | 257 W/m² | - |
| 1777731923 | 15.56° C | 56% | 1013.2 hPa | 0 mm | - | 276 W/m² | - |
| 1777731620 | 15° C | 58% | 1013.1 hPa | 0 mm | - | 424 W/m² | - |
| 1777731317 | 15° C | 61% | 1012.9 hPa | 0 mm | - | 315 W/m² | - |
| 1777731015 | 15° C | 61% | 1013.1 hPa | 0 mm | - | 262 W/m² | - |
| 1777730714 | 13.89° C | 61% | 1012.8 hPa | 0 mm | - | 426 W/m² | - |
| 1777730409 | 14.44° C | 61% | 1012.9 hPa | 0 mm | - | 175 W/m² | - |
| 1777730105 | 13.89° C | 62% | 1013 hPa | 0 mm | - | 373 W/m² | - |
| 1777729802 | 14.44° C | 65% | 1013 hPa | 0 mm | - | 188 W/m² | - |
| 1777729499 | 15° C | 67% | 1012.9 hPa | 0 mm | - | 161 W/m² | - |
| 1777729195 | 15° C | 68% | 1012.8 hPa | 0 mm | - | 333 W/m² | - |
* Rain latest hour (hover to see other rain measurements)
** Current wind speed in m/s (hover to see current wind gust speed)